LUDI TANCE-4 01A

Last updated on Sun Dec 07 2025 00:02:51 GMT+0000 (Coordinated Universal Time)

1 57624U 23120A 25340.08785223 -.00000163 00000+0 00000+0 0 9990 2 57624 15.2383 198.7451 0006301 78.7532 278.9855 1.00273450 8605
UTC large
Height (km)
Speed (km/s)
/
Latitude / Longitude
Inclination (degrees)
Orbital Period (minutes)
Azimuth
Elevation
Range (km)
Doppler Factor

Next 0 passes for location: London (51.5072 / 0.1276)

Sorry there are no passes over London.